| time (UTC) | temp F | wind direction | speed MPH | gust MPH | rain 1hr in | rain 24hr in | rain mn in | humidity % | barometer mb |
| 20260510182653 | 77 | 201 | 3.0 | 8.0 | 0.00 | 0.00 | 0.00 | 78 | 1013.8 |
| 20260510182153 | 77 | 169 | 2.0 | 6.0 | 0.00 | 0.00 | 0.00 | 81 | 1013.8 |
| 20260510181653 | 77 | 177 | 2.0 | 6.0 | 0.00 | 0.00 | 0.00 | 81 | 1013.8 |
| 20260510181153 | 77 | 179 | 3.0 | 7.0 | 0.00 | 0.00 | 0.00 | 81 | 1013.9 |
| 20260510180653 | 77 | 86 | 3.0 | 7.0 | 0.00 | 0.00 | 0.00 | 81 | 1013.8 |
| 20260510180157 | 76 | 165 | 3.0 | 7.0 | 0.00 | 0.00 | 0.00 | 82 | 1014.0 |
| 20260510175700 | 76 | 185 | 3.0 | 8.0 | 0.00 | 0.00 | 0.00 | 81 | 1014.1 |
| 20260510175153 | 76 | 172 | 3.0 | 6.0 | 0.00 | 0.00 | 0.00 | 82 | 1014.2 |
| 20260510174653 | 76 | 88 | 3.0 | 6.0 | 0.00 | 0.00 | 0.00 | 82 | 1014.2 |
| 20260510174155 | 75 | 124 | 4.0 | 7.0 | 0.00 | 0.00 | 0.00 | 82 | 1014.5 |
| 20260510173653 | 75 | 160 | 3.0 | 6.0 | 0.00 | 0.00 | 0.00 | 84 | 1014.5 |
| 20260510173153 | 75 | 242 | 3.0 | 7.0 | 0.00 | 0.00 | 0.00 | 84 | 1014.6 |
| 20260510172653 | 75 | 173 | 3.0 | 6.0 | 0.00 | 0.00 | 0.00 | 86 | 1014.6 |
| 20260510172153 | 75 | 210 | 2.0 | 8.0 | 0.00 | 0.00 | 0.00 | 84 | 1014.7 |
| 20260510171653 | 76 | 193 | 3.0 | 8.0 | 0.00 | 0.00 | 0.00 | 86 | 1014.5 |
| 20260510171153 | 75 | 158 | 4.0 | 6.0 | 0.00 | 0.00 | 0.00 | 84 | 1014.6 |
| 20260510170653 | 75 | 188 | 3.0 | 6.0 | 0.00 | 0.00 | 0.00 | 84 | 1014.7 |
| 20260510170153 | 74 | 176 | 2.0 | 4.0 | 0.00 | 0.00 | 0.00 | 85 | 1014.6 |
| 20260510165653 | 74 | 203 | 3.0 | 5.0 | 0.00 | 0.00 | 0.00 | 86 | 1014.6 |
| 20260510165153 | 74 | 132 | 2.0 | 8.0 | 0.00 | 0.00 | 0.00 | 87 | 1014.8 |
| 20260510164653 | 74 | 134 | 1.0 | 5.0 | 0.00 | 0.00 | 0.00 | 87 | 1014.9 |
| 20260510164153 | 73 | 203 | 1.0 | 3.0 | 0.00 | 0.00 | 0.00 | 92 | 1014.8 |
| 20260510163653 | 73 | 205 | 1.0 | 2.0 | 0.00 | 0.00 | 0.00 | 91 | 1014.9 |
| 20260510163153 | 72 | 201 | 1.0 | 5.0 | 0.00 | 0.00 | 0.00 | 91 | 1015.0 |
| 20260510162653 | 72 | 233 | 1.0 | 3.0 | 0.00 | 0.00 | 0.00 | 92 | 1015.1 |
| 20260510162153 | 72 | 230 | 2.0 | 5.0 | 0.00 | 0.00 | 0.00 | 93 | 1015.1 |
| 20260510161653 | 72 | 205 | 2.0 | 4.0 | 0.00 | 0.00 | 0.00 | 93 | 1015.0 |
| 20260510161153 | 71 | 210 | 2.0 | 5.0 | 0.00 | 0.00 | 0.00 | 94 | 1014.9 |
| 20260510160653 | 71 | 247 | 1.0 | 2.0 | 0.00 | 0.00 | 0.00 | 94 | 1014.8 |
| 20260510160153 | 70 | 217 | 1.0 | 3.0 | 0.00 | 0.00 | 0.00 | 97 | 1014.7 |
| 20260510153653 | 0 | 767 | 255.0 | 255.0 | 0.00 | 0.00 | 0.00 | ||
| 20260510152653 | 0 | 767 | 255.0 | 255.0 | 0.00 | 0.00 | 0.00 | ||
| 20260510152153 | 68 | 221 | 1.0 | 3.0 | 0.00 | 0.00 | 0.00 | 100 | 1014.4 |
| 20260510151653 | 68 | 221 | 1.0 | 3.0 | 0.00 | 0.00 | 0.00 | 100 | 1014.4 |
| 20260510151153 | 68 | 223 | 1.0 | 3.0 | 0.00 | 0.00 | 0.00 | 100 | 1014.4 |
| 20260510150653 | 67 | 227 | 1.0 | 3.0 | 0.00 | 0.00 | 0.00 | 100 | 1014.5 |
| 20260510150153 | 67 | 227 | 1.0 | 2.0 | 0.00 | 0.00 | 0.00 | 100 | 1014.4 |
| 20260510145653 | 67 | 229 | 1.0 | 3.0 | 0.00 | 0.00 | 0.00 | 100 | 1014.4 |
| 20260510145153 | 67 | 219 | 1.0 | 3.0 | 0.00 | 0.00 | 0.00 | 100 | 1014.5 |
| 20260510144653 | 67 | 219 | 1.0 | 2.0 | 0.00 | 0.00 | 0.00 | 100 | 1014.6 |
| 20260510144153 | 67 | 219 | 1.0 | 3.0 | 0.00 | 0.00 | 0.00 | 100 | 1014.4 |
| 20260510143653 | 66 | 218 | 1.0 | 3.0 | 0.00 | 0.00 | 0.00 | 100 | 1014.3 |
| 20260510143153 | 66 | 216 | 2.0 | 3.0 | 0.00 | 0.00 | 0.00 | 100 | 1014.6 |
| 20260510142653 | 66 | 237 | 2.0 | 3.0 | 0.00 | 0.00 | 0.00 | 100 | 1014.5 |
| 20260510142153 | 66 | 237 | 2.0 | 4.0 | 0.00 | 0.00 | 0.00 | 100 | 1014.5 |
| 20260510141653 | 66 | 221 | 2.0 | 4.0 | 0.00 | 0.00 | 0.00 | 100 | 1014.5 |
| 20260510141248 | 66 | 229 | 1.0 | 4.0 | 0.00 | 0.00 | 0.00 | 100 | 1014.5 |
| 20260510141153 | 66 | 229 | 1.0 | 4.0 | 0.00 | 0.00 | 0.00 | 100 | 1014.5 |
| 20260510140653 | 66 | 236 | 1.0 | 4.0 | 0.00 | 0.00 | 0.00 | 100 | 1014.5 |